Probability
16 16 19 20 18 21 23 21 18 17 15 11 7 8 9 9 10 14 16 14 12 10 10 11 11 10 9 7 5 3 1 1 2 2 1 0 0 0 0 0 0 0 0
15 15 17 18 19 21 23 22 18 17 16 13 9 8 9 10 11 13 14 13 11 11 13 14 14 12 11 10 7 5 2 1 1 1 1 0 0 0 0 0 0 0 0
15 16 17 18 19 20 22 22 19 17 16 16 14 12 12 13 13 13 14 13 11 12 15 17 16 13 11 10 9 7 4 2 1 1 1 1 0 0 0 0 1 1 1
13 16 18 19 19 20 21 22 20 18 17 19 20 17 15 16 15 13 14 15 13 12 14 15 13 10 8 7 6 4 3 2 2 2 2 1 0 0 0 0 0 1 1
11 13 16 18 19 20 21 21 19 18 18 19 20 17 15 15 14 12 12 14 13 13 13 13 9 6 5 4 3 2 2 3 3 3 3 2 1 0 1 1 1 1 1
9 11 13 16 18 20 19 17 16 16 17 17 15 13 13 12 10 10 10 11 12 11 10 11 10 7 6 4 3 2 3 4 5 4 3 2 1 0 1 2 2 1 1
7 9 11 13 15 15 15 14 13 13 14 14 13 11 9 8 8 8 8 9 9 8 7 8 9 9 7 6 4 4 4 4 5 4 3 2 1 0 1 1 1 1 0
3 5 8 9 10 10 10 10 10 11 11 13 14 12 8 7 7 7 7 7 6 6 5 4 6 7 8 8 6 5 5 5 3 2 2 2 2 1 1 0 0 0 0
1 2 4 5 5 6 6 7 8 8 9 11 12 11 9 9 8 6 5 4 4 4 4 4 4 6 7 8 7 5 5 4 2 0 1 1 2 2 2 1 0 0 0
0 1 1 3 3 4 4 4 5 5 6 8 8 7 9 10 8 5 3 3 3 3 3 4 5 6 7 7 6 4 3 2 1 0 0 0 1 2 2 1 0 0 0
0 0 1 2 2 2 3 3 3 3 4 5 4 3 5 7 6 3 2 3 3 3 3 3 4 5 6 5 4 3 1 0 0 0 0 0 0 1 1 0 0 0 0
1 0 0 1 2 2 2 2 1 1 3 4 3 2 2 3 3 2 1 2 3 3 3 3 3 4 3 3 3 2 1 0 0 0 0 0 0 0 0 0 0 0 0
1 0 0 1 2 2 1 1 0 0 1 2 2 1 1 1 2 2 1 1 2 3 3 3 2 2 1 1 1 1 0 0 0 0 0 0 0 0 0 0 0 0 0
1 0 0 1 1 1 1 0 0 0 0 1 1 1 1 1 1 2 2 1 1 1 2 1 1 1 0 0 0 0 0 0 0 0 0 0 0 0 0 0 0 0 0
0 0 0 0 0 0 0 0 0 0 0 0 0 1 1 0 1 2 2 1 0 0 0 0 0 0 0 0 0 0 0 0 0 0 0 0 0 0 0 0 0 0 0
0 0 0 0 0 0 0 0 0 0 0 0 0 0 0 0 0 1 2 1 1 0 0 0 0 0 0 0 0 0 0 0 0 0 0 0 0 0 0 0 0 0 0
0 0 0 0 0 0 0 0 0 0 0 0 0 0 0 0 0 1 2 2 2 1 0 0 0 0 0 0 0 0 0 0 0 0 0 0 0 0 0 0 0 0 0
0 0 0 0 0 0 0 0 0 0 0 0 0 0 0 0 0 1 1 1 1 1 0 0 0 0 0 0 0 0 0 0 0 0 0 0 0 0 0 0 0 0 0
0 0 0 0 0 0 0 0 0 0 0 0 0 0 0 0 0 1 0 0 0 0 0 0 0 0 0 0 0 0 0 0 0 0 0 0 0 0 0 0 0 0 0
0 0 0 0 0 0 0 0 0 0 0 0 0 0 0 0 0 0 0 0 0 0 0 0 0 0 0 0 0 0 0 0 0 0 0 0 0 0 0 0 0 0 0
0 0 0 0 0 0 0 0 0 0 0 0 0 0 0 0 0 0 0 0 0 0 0 0 0 0 0 0 0 0 0 0 0 0 0 0 0 0 0 0 0 0 0
0 0 0 0 0 0 0 0 0 0 0 0 0 0 0 0 0 0 0 0 0 0 0 0 0 0 0 0 0 0 0 0 0 0 0 0 0 0 0 0 0 0 0
0 0 0 0 0 0 0 0 0 0 0 0 0 0 0 0 0 0 0 0 0 0 0 0 0 0 0 0 0 0 0 0 0 0 0 0 0 0 0 0 0 0 0
0 0 0 0 0 0 0 0 0 0 0 0 0 0 0 0 0 0 0 0 0 0 0 0 0 0 0 0 0 0 0 0 0 0 0 0 0 0 0 0 0 0 0
0 0 0 0 0 0 0 0 0 0 0 0 0 0 0 0 0 0 0 0 0 0 0 0 0 0 0 0 0 0 0 0 0 0 0 0 0 0 0 0 0 0 0
0 0 0 0 0 0 0 0 0 0 0 0 0 0 0 0 0 0 0 0 0 0 0 0 0 0 0 0 0 0 0 0 0 0 0 0 0 0 0 0 0 0 0
Wind_Speed
2 2 2 2 3 2 3 3 3 3 3 3 3 3 4 4 4 4 0 3 0 2 3 4 3 5 7 8 8 9 9 9 9 9 9 10 10 11 12 11 11 11 11
2 2 2 3 3 3 3 3 3 3 3 2 3 3 4 4 3 3 3 2 2 0 2 3 2 3 4 6 7 7 7 8 8 8 9 9 10 10 11 11 12 12 12
2 3 3 3 3 3 3 3 3 3 3 3 3 3 3 3 3 3 3 3 2 2 1 2 2 1 2 3 5 5 6 7 8 7 8 8 9 10 10 11 11 11 11
3 3 3 3 3 3 3 3 3 3 3 3 3 3 3 2 2 2 2 2 2 1 2 2 2 1 1 2 3 4 5 7 7 7 7 8 9 9 10 10 11 11 11
3 3 3 3 4 3 2 3 2 3 3 3 3 2 2 2 2 2 1 1 1 1 1 2 2 2 1 1 1 1 2 4 5 5 5 6 7 8 8 9 9 9 9
4 4 3 3 4 3 3 3 3 3 3 3 3 1 2 1 1 1 1 0 1 1 1 1 0 2 2 2 2 2 1 2 3 3 4 4 5 6 7 7 8 9 9
4 4 4 3 4 3 3 4 4 4 3 2 3 2 2 1 0 0 1 1 1 2 2 2 2 1 1 2 2 2 2 1 2 3 4 4 3 5 7 8 8 8 10
4 3 4 4 3 3 2 3 3 4 3 2 3 3 2 2 2 1 0 0 1 2 2 2 2 2 2 2 3 3 3 2 2 2 2 2 3 4 5 6 7 9 9
4 4 4 4 4 3 3 3 3 4 3 3 3 3 3 1 0 2 1 1 1 1 1 1 2 2 2 2 2 5 5 4 3 1 1 1 2 3 4 5 6 8 9
4 4 4 4 5 4 3 3 3 3 3 3 2 3 3 3 2 1 2 1 1 1 1 1 1 2 2 2 4 7 7 5 4 3 2 2 0 1 2 3 5 6 8
2 4 4 4 4 4 4 4 3 4 3 3 3 2 2 2 3 2 1 1 1 1 1 1 1 1 2 3 3 7 8 7 6 5 4 4 2 1 1 2 2 3 4
2 4 4 4 4 4 4 3 3 3 3 3 3 2 2 3 3 2 2 2 1 1 1 1 1 1 1 2 5 7 6 6 6 5 4 4 3 2 2 2 2 3 4
2 4 4 4 4 4 4 4 3 3 3 3 3 3 2 3 3 3 2 2 1 1 1 1 1 1 1 2 3 4 5 5 6 5 5 4 4 3 3 2 2 3 4
3 4 4 4 4 4 4 4 3 3 3 3 3 3 3 2 2 3 3 2 2 2 2 1 1 1 1 1 3 3 3 5 5 5 5 4 4 3 3 3 2 3 3
2 3 3 4 4 4 4 4 3 4 3 3 3 2 3 2 2 3 3 3 3 3 2 2 2 2 0 1 1 0 1 4 4 4 4 3 3 3 3 3 2 2 2
3 3 3 4 3 3 4 4 3 3 3 3 3 3 3 2 2 2 3 3 3 3 1 1 1 2 1 1 1 0 1 2 1 1 2 2 2 2 2 2 1 1 2
3 4 4 4 4 4 4 4 4 4 4 3 2 2 2 3 2 2 2 3 3 2 1 1 1 2 2 1 1 1 1 2 2 2 1 1 1 1 1 1 1 2 3
3 3 4 4 4 4 4 4 4 4 4 3 3 3 3 2 2 2 2 3 2 2 2 2 2 2 2 2 1 2 1 1 0 4 2 1 1 1 0 1 1 2 3
2 3 3 4 4 4 4 4 4 4 4 3 3 3 3 2 2 2 2 2 1 1 2 2 2 2 2 2 2 2 1 1 1 3 5 4 3 3 2 2 1 2 3
3 3 3 4 4 4 4 4 3 3 3 3 3 3 3 3 3 2 2 1 1 1 2 3 2 2 2 2 3 2 2 2 2 2 1 2 4 5 4 4 4 3 3
2 3 3 3 3 3 4 5 4 3 3 3 3 2 3 3 4 3 2 1 1 2 2 2 2 2 2 2 2 2 1 1 2 2 2 2 3 4 6 7 7 6 5
2 2 3 3 3 3 4 5 6 4 3 3 3 2 1 1 0 1 1 2 3 2 2 2 2 2 2 2 1 2 2 2 2 1 3 2 2 3 3 3 7 8 7
2 2 3 3 3 3 2 3 5 5 3 3 3 3 3 3 2 1 2 4 3 2 3 4 3 3 2 1 2 3 2 3 3 2 3 3 3 3 3 3 10 9 8
2 2 2 3 3 3 1 3 5 4 3 2 3 3 2 2 3 4 2 1 2 2 3 4 4 3 2 2 3 4 3 4 4 4 3 4 3 3 3 3 10 11 10
2 2 2 2 3 2 1 3 6 3 2 2 3 3 3 2 3 4 3 1 1 2 2 2 3 3 2 3 4 4 4 4 4 3 3 4 3 3 3 4 6 12 12
2 3 2 2 3 3 2 3 5 4 2 2 1 1 1 2 3 4 3 2 3 3 2 2 3 5 6 7 8 7 6 5 4 3 3 4 4 4 3 3 4 6 8
Wind_Direction
329 319 314 310 302 308 292 286 287 291 283 279 280 280 284 290 287 284 233 113 319 295 290 288 256 227 221 220 224 226 226 227 229 229 226 223 221 218 215 213 213 212 213
349 322 311 310 310 315 318 306 296 285 274 276 275 281 279 279 275 277 275 183 155 290 324 322 275 237 229 225 227 229 230 231 230 227 227 226 222 219 217 217 216 214 213
352 327 320 312 324 314 301 289 293 282 273 268 268 274 269 271 278 276 283 287 233 158 83 344 324 273 248 235 232 230 229 231 233 229 228 227 223 220 218 220 220 216 213
347 321 319 324 321 304 301 298 292 293 288 286 288 287 284 272 264 274 283 290 311 316 105 54 36 42 285 271 247 234 238 239 239 236 234 231 227 224 219 220 222 219 213
341 319 319 332 306 309 312 306 319 299 291 286 277 264 276 276 278 282 289 314 6 347 1 94 94 64 41 12 340 263 234 242 246 242 238 236 232 230 220 216 217 219 215
349 326 318 331 312 314 321 328 313 292 291 294 286 293 284 286 286 308 293 353 39 26 25 16 95 107 72 32 20 7 336 236 246 239 239 239 227 222 221 216 215 215 211
354 335 328 331 316 328 330 325 317 300 294 296 278 266 233 224 195 269 310 338 75 61 52 45 25 15 92 93 55 17 355 301 264 253 245 239 229 220 220 218 218 216 212
350 343 342 327 336 321 330 335 327 311 307 293 291 282 251 196 168 163 195 133 82 80 71 58 35 28 18 32 66 37 13 351 323 273 263 247 239 227 221 219 221 220 213
6 1 352 341 334 323 342 329 325 312 306 292 291 293 288 282 2 164 132 97 83 84 90 91 70 44 39 39 45 53 25 14 9 20 316 260 232 223 222 223 226 226 219
18 18 6 357 342 341 342 325 350 316 301 299 296 294 300 306 275 221 174 136 113 80 56 39 63 63 41 55 63 50 32 19 30 41 29 17 65 190 192 206 220 227 222
27 20 9 3 353 350 353 341 330 319 308 298 296 295 284 265 260 259 238 198 174 118 83 55 44 59 46 42 51 51 35 23 25 36 39 40 44 73 128 159 182 196 204
25 21 10 3 355 358 353 343 329 322 316 305 296 286 278 278 270 260 250 235 234 109 91 82 63 62 52 49 60 51 38 30 27 30 35 39 46 51 59 108 135 153 159
11 15 0 354 355 353 341 337 330 325 313 298 286 285 283 285 288 280 257 243 238 202 192 174 107 76 68 59 73 43 60 39 29 26 30 38 48 48 50 78 112 130 136
12 1 346 348 348 344 339 335 328 333 323 303 298 292 284 281 278 274 267 251 232 207 197 172 145 130 89 68 61 301 76 54 37 26 25 29 33 35 40 59 84 111 122
355 354 345 347 343 345 345 334 346 335 325 312 309 297 292 285 273 271 268 259 257 240 205 170 172 142 142 79 66 352 59 63 39 27 22 22 27 32 43 53 64 99 129
355 343 347 348 343 344 347 338 335 350 337 334 328 321 304 297 287 273 270 263 264 267 246 163 154 135 130 157 149 281 79 136 120 43 33 27 29 35 41 55 67 102 128
350 347 348 342 346 353 351 343 343 340 335 342 330 321 314 306 294 279 272 265 262 259 226 139 122 131 175 200 167 240 226 245 130 127 86 37 20 28 31 49 92 132 145
348 352 348 344 351 3 351 345 342 342 340 341 340 334 318 309 291 288 282 274 271 252 218 176 171 168 177 193 196 245 241 244 93 126 154 204 225 206 127 99 115 131 153
349 346 346 351 357 356 351 353 345 346 346 342 338 335 327 317 304 305 280 269 254 226 211 198 186 164 175 183 207 219 207 241 239 157 178 193 198 200 189 181 168 157 155
357 355 357 359 358 356 353 354 354 359 357 349 342 335 333 327 324 312 281 260 240 218 199 201 185 174 178 185 218 213 206 214 252 227 188 187 176 189 195 194 194 186 176
356 2 356 354 355 352 4 354 342 342 339 331 330 347 3 7 350 327 321 303 240 223 211 200 198 193 182 195 219 242 248 246 238 252 248 223 196 205 188 194 198 194 190
356 357 354 352 354 14 26 349 324 319 319 327 340 344 353 360 44 183 230 305 309 272 257 246 233 215 216 220 243 252 265 271 260 223 269 255 237 242 229 207 165 177 195
339 346 350 348 359 28 17 331 325 311 313 326 330 330 347 20 338 335 180 198 214 249 269 280 266 255 238 218 245 249 259 281 291 289 278 272 243 244 238 173 159 183 199
322 336 337 343 347 16 21 315 312 289 304 318 326 336 343 344 353 329 290 268 254 237 243 245 261 260 256 246 245 253 256 254 249 235 237 268 265 260 252 199 172 192 206
301 302 311 326 330 354 0 311 305 299 320 329 332 346 338 340 11 331 296 290 285 267 222 241 291 285 288 255 255 255 245 246 255 237 215 253 265 262 252 233 193 193 208
285 291 321 320 317 329 19 317 303 299 320 313 304 306 34 327 340 319 294 291 282 282 280 233 224 224 226 221 219 238 258 265 272 265 202 239 257 259 256 234 221 202 211